User: anonymous   Login
Location: Kalberh�ni
(46.4610°N, 7.2453°E)
Time: 06:01:52
(UTC+00:00)
Language:

Iridium 2 - Orbit

View from above orbital plane
View from above orbital plane
View from above satellite
View from above satellite

Ground track
Ground track

The orbit data is extracted from the following two-line orbital elements,

1 25527U 98066A   21263.31386182  .00001792  00000-0  81701-4 0  9996
2 25527  85.5339 191.4180 0010815 111.1783 249.0615 15.19849147254442
Epoch (UTC): 20 September 2021 07:31:57
Eccentricity: 0.0010815
inclination: 85.5339°
perigee height: 499 km
apogee height: 514 km
right ascension of ascending node: 191.4180°
argument of perigee: 111.1783°
revolutions per day: 15.19849147
mean anomaly at epoch: 249.0615°
orbit number at epoch: 25444

The dashed part of the orbit path shows where the satellite is in the earth's shadow,  

DLR